QPF
0.01 0.01 0.00 0.01 0.01 0.03 0.05 0.07 0.06 0.05 0.05 0.05 0.07 0.08 0.09 0.05 0.05 0.05 0.05 0.06 0.09 0.10 0.09 0.07 0.08 0.09 0.08 0.08 0.08 0.08 0.07 0.05 0.05 0.05 0.05 0.05 0.06 0.06 0.04 0.03 0.04 0.03 0.03
0.01 0.01 0.01 0.01 0.01 0.03 0.05 0.06 0.06 0.05 0.05 0.05 0.07 0.06 0.07 0.05 0.05 0.05 0.05 0.06 0.06 0.08 0.11 0.11 0.08 0.08 0.08 0.08 0.07 0.07 0.05 0.06 0.06 0.05 0.05 0.05 0.05 0.05 0.04 0.03 0.03 0.03 0.03
0.02 0.01 0.01 0.01 0.01 0.02 0.04 0.05 0.06 0.06 0.07 0.06 0.07 0.07 0.08 0.06 0.07 0.07 0.07 0.05 0.04 0.06 0.09 0.11 0.10 0.07 0.07 0.07 0.06 0.05 0.05 0.05 0.05 0.05 0.08 0.07 0.05 0.05 0.05 0.03 0.02 0.03 0.04
0.02 0.01 0.02 0.01 0.02 0.02 0.04 0.06 0.05 0.05 0.08 0.07 0.05 0.07 0.07 0.06 0.06 0.06 0.06 0.05 0.05 0.05 0.07 0.08 0.08 0.08 0.06 0.05 0.05 0.05 0.06 0.06 0.06 0.06 0.07 0.08 0.08 0.07 0.06 0.05 0.03 0.03 0.04
0.03 0.02 0.02 0.02 0.04 0.04 0.05 0.06 0.06 0.06 0.07 0.06 0.05 0.06 0.06 0.06 0.07 0.06 0.05 0.05 0.05 0.04 0.05 0.07 0.09 0.08 0.06 0.05 0.05 0.05 0.05 0.05 0.06 0.06 0.06 0.05 0.06 0.05 0.05 0.05 0.04 0.03 0.03
0.06 0.04 0.03 0.04 0.05 0.06 0.07 0.06 0.06 0.06 0.06 0.06 0.05 0.06 0.07 0.06 0.05 0.05 0.05 0.05 0.04 0.04 0.05 0.05 0.05 0.06 0.05 0.04 0.04 0.04 0.04 0.05 0.05 0.06 0.05 0.05 0.04 0.04 0.06 0.06 0.04 0.04 0.03
0.06 0.06 0.05 0.03 0.04 0.06 0.06 0.06 0.07 0.06 0.07 0.08 0.08 0.08 0.07 0.07 0.06 0.05 0.06 0.05 0.04 0.04 0.05 0.05 0.04 0.03 0.03 0.03 0.03 0.03 0.03 0.03 0.04 0.04 0.04 0.04 0.04 0.05 0.06 0.06 0.05 0.05 0.04
0.07 0.07 0.05 0.04 0.03 0.03 0.04 0.05 0.06 0.05 0.06 0.08 0.07 0.05 0.06 0.07 0.06 0.05 0.04 0.05 0.05 0.04 0.04 0.06 0.05 0.04 0.03 0.02 0.02 0.02 0.03 0.03 0.03 0.03 0.04 0.05 0.05 0.06 0.07 0.07 0.08 0.07 0.05
0.08 0.07 0.06 0.06 0.05 0.05 0.05 0.05 0.05 0.06 0.07 0.09 0.10 0.08 0.06 0.05 0.05 0.05 0.05 0.04 0.04 0.04 0.04 0.05 0.05 0.05 0.04 0.03 0.03 0.03 0.02 0.03 0.03 0.04 0.05 0.07 0.08 0.09 0.08 0.07 0.06 0.06 0.06
0.05 0.08 0.08 0.08 0.07 0.06 0.05 0.04 0.05 0.08 0.13 0.14 0.11 0.09 0.07 0.05 0.04 0.03 0.03 0.02 0.02 0.02 0.02 0.04 0.04 0.04 0.02 0.02 0.02 0.03 0.03 0.03 0.04 0.05 0.07 0.08 0.09 0.09 0.08 0.06 0.04 0.05 0.05
0.05 0.07 0.07 0.06 0.05 0.04 0.03 0.03 0.05 0.06 0.07 0.05 0.04 0.03 0.03 0.03 0.02 0.02 0.02 0.02 0.02 0.02 0.02 0.02 0.03 0.03 0.03 0.03 0.03 0.03 0.04 0.04 0.05 0.05 0.05 0.04 0.05 0.05 0.06 0.06 0.05 0.04 0.04
0.04 0.05 0.05 0.05 0.05 0.04 0.03 0.03 0.04 0.05 0.03 0.02 0.02 0.02 0.02 0.02 0.03 0.02 0.02 0.03 0.03 0.02 0.02 0.02 0.03 0.03 0.03 0.03 0.03 0.04 0.03 0.03 0.04 0.03 0.03 0.04 0.05 0.04 0.05 0.05 0.04 0.04 0.04
0.03 0.03 0.03 0.04 0.05 0.05 0.04 0.03 0.04 0.03 0.03 0.02 0.02 0.02 0.02 0.02 0.02 0.01 0.01 0.02 0.02 0.02 0.02 0.02 0.03 0.03 0.03 0.04 0.03 0.03 0.03 0.03 0.04 0.04 0.04 0.04 0.04 0.04 0.04 0.04 0.05 0.04 0.04
0.02 0.02 0.03 0.04 0.04 0.06 0.06 0.04 0.03 0.02 0.02 0.02 0.02 0.02 0.02 0.02 0.02 0.02 0.02 0.01 0.01 0.01 0.02 0.02 0.02 0.03 0.04 0.05 0.04 0.03 0.04 0.04 0.04 0.04 0.05 0.06 0.05 0.04 0.04 0.04 0.04 0.04 0.03
0.02 0.03 0.04 0.04 0.04 0.05 0.06 0.04 0.03 0.03 0.03 0.03 0.02 0.02 0.02 0.02 0.01 0.01 0.02 0.01 0.02 0.01 0.02 0.02 0.02 0.02 0.03 0.04 0.03 0.03 0.04 0.05 0.04 0.04 0.07 0.06 0.05 0.05 0.05 0.04 0.04 0.04 0.04
0.02 0.03 0.04 0.04 0.04 0.04 0.05 0.05 0.05 0.04 0.04 0.04 0.03 0.02 0.01 0.02 0.02 0.02 0.02 0.01 0.01 0.02 0.02 0.03 0.03 0.03 0.03 0.04 0.05 0.05 0.05 0.05 0.05 0.05 0.07 0.07 0.06 0.06 0.06 0.05 0.05 0.04 0.04
0.01 0.03 0.04 0.04 0.03 0.03 0.04 0.04 0.04 0.03 0.03 0.03 0.02 0.01 0.02 0.02 0.03 0.03 0.03 0.03 0.03 0.02 0.02 0.03 0.03 0.04 0.06 0.08 0.10 0.12 0.08 0.06 0.06 0.05 0.05 0.06 0.06 0.06 0.06 0.05 0.04 0.03 0.03
0.01 0.02 0.02 0.03 0.03 0.03 0.02 0.02 0.02 0.01 0.01 0.01 0.01 0.01 0.02 0.04 0.05 0.06 0.06 0.05 0.04 0.03 0.02 0.02 0.02 0.05 0.08 0.09 0.09 0.09 0.05 0.04 0.04 0.05 0.05 0.04 0.03 0.03 0.04 0.03 0.02 0.02 0.02
0.02 0.01 0.01 0.01 0.02 0.02 0.01 0.02 0.02 0.02 0.01 0.01 0.00 0.01 0.01 0.02 0.03 0.04 0.04 0.05 0.04 0.03 0.02 0.02 0.02 0.03 0.03 0.02 0.02 0.02 0.02 0.02 0.02 0.03 0.03 0.03 0.02 0.02 0.02 0.02 0.02 0.02 0.02
0.01 0.01 0.01 0.01 0.01 0.01 0.01 0.02 0.01 0.02 0.02 0.01 0.01 0.01 0.01 0.02 0.03 0.03 0.02 0.03 0.02 0.01 0.01 0.01 0.01 0.01 0.01 0.01 0.01 0.01 0.01 0.01 0.01 0.02 0.02 0.02 0.02 0.02 0.02 0.02 0.02 0.02 0.02
0.01 0.01 0.01 0.01 0.01 0.01 0.01 0.02 0.01 0.01 0.01 0.01 0.01 0.01 0.01 0.01 0.01 0.02 0.01 0.01 0.01 0.01 0.01 0.01 0.01 0.01 0.01 0.00 0.00 0.01 0.01 0.01 0.01 0.02 0.02 0.02 0.02 0.01 0.01 0.01 0.01 0.01 0.01
0.01 0.01 0.01 0.02 0.02 0.02 0.02 0.03 0.02 0.01 0.01 0.01 0.02 0.01 0.01 0.01 0.00 0.01 0.01 0.01 0.01 0.01 0.01 0.01 0.01 0.00 0.00 0.01 0.01 0.01 0.01 0.02 0.01 0.01 0.01 0.01 0.01 0.01 0.00 0.00 0.00 0.00 0.00
0.01 0.01 0.01 0.02 0.02 0.02 0.02 0.02 0.02 0.01 0.01 0.01 0.01 0.00 0.01 0.01 0.01 0.01 0.01 0.01 0.02 0.01 0.01 0.01 0.00 0.00 0.00 0.01 0.02 0.02 0.02 0.02 0.01 0.01 0.01 0.01 0.00 0.00 0.00 0.00 0.00 0.00 0.01
0.01 0.01 0.01 0.02 0.02 0.01 0.01 0.01 0.01 0.01 0.01 0.01 0.01 0.01 0.01 0.01 0.01 0.01 0.01 0.01 0.02 0.01 0.01 0.01 0.00 0.00 0.01 0.02 0.02 0.01 0.01 0.01 0.01 0.01 0.01 0.01 0.00 0.00 0.00 0.00 0.00 0.00 0.00
0.01 0.01 0.01 0.02 0.02 0.02 0.02 0.02 0.01 0.01 0.01 0.01 0.01 0.01 0.01 0.01 0.01 0.01 0.01 0.02 0.01 0.01 0.01 0.00 0.00 0.01 0.01 0.01 0.01 0.01 0.00 0.01 0.01 0.01 0.01 0.01 0.01 0.01 0.00 0.00 0.00 0.00 0.00
0.01 0.01 0.01 0.01 0.02 0.02 0.02 0.02 0.02 0.01 0.01 0.01 0.01 0.01 0.01 0.01 0.02 0.01 0.01 0.01 0.01 0.01 0.01 0.00 0.00 0.00 0.00 0.00 0.01 0.01 0.00 0.00 0.00 0.00 0.01 0.01 0.01 0.01 0.01 0.00 0.00 0.00 0.01
MSLP
1007.91 1007.73 1007.61 1007.52 1007.46 1007.41 1007.36 1007.33 1007.32 1007.36 1007.47 1007.66 1007.93 1008.27 1008.66 1009.06 1009.43 1009.77 1010.07 1010.32 1010.56 1010.80 1011.08 1011.40 1011.78 1012.20 1012.63 1013.04 1013.40 1013.67 1013.84 1013.88 1013.83 1013.70 1013.51 1013.31 1013.10 1012.91 1012.75 1012.63 1012.53 1012.46 1012.41
1007.54 1007.38 1007.31 1007.31 1007.35 1007.39 1007.44 1007.47 1007.52 1007.59 1007.70 1007.88 1008.13 1008.43 1008.78 1009.14 1009.48 1009.80 1010.07 1010.30 1010.52 1010.75 1011.00 1011.29 1011.63 1012.00 1012.39 1012.75 1013.06 1013.30 1013.44 1013.49 1013.45 1013.36 1013.22 1013.06 1012.91 1012.77 1012.66 1012.56 1012.47 1012.39 1012.33
1007.02 1006.87 1006.85 1006.92 1007.05 1007.19 1007.33 1007.45 1007.56 1007.67 1007.82 1008.01 1008.27 1008.57 1008.92 1009.27 1009.62 1009.93 1010.21 1010.44 1010.65 1010.86 1011.07 1011.32 1011.60 1011.90 1012.21 1012.50 1012.75 1012.94 1013.05 1013.09 1013.06 1012.99 1012.89 1012.79 1012.69 1012.61 1012.53 1012.45 1012.38 1012.30 1012.21
1006.47 1006.32 1006.34 1006.47 1006.67 1006.89 1007.11 1007.30 1007.48 1007.65 1007.84 1008.08 1008.36 1008.70 1009.08 1009.47 1009.85 1010.19 1010.49 1010.74 1010.95 1011.13 1011.32 1011.51 1011.72 1011.94 1012.17 1012.38 1012.56 1012.69 1012.76 1012.78 1012.75 1012.70 1012.63 1012.57 1012.51 1012.45 1012.40 1012.34 1012.27 1012.17 1012.06
1006.04 1005.89 1005.92 1006.09 1006.33 1006.62 1006.89 1007.14 1007.37 1007.60 1007.84 1008.13 1008.47 1008.86 1009.29 1009.74 1010.17 1010.56 1010.90 1011.17 1011.39 1011.56 1011.71 1011.85 1011.99 1012.14 1012.29 1012.42 1012.53 1012.60 1012.64 1012.63 1012.60 1012.55 1012.50 1012.45 1012.41 1012.37 1012.32 1012.25 1012.16 1012.04 1011.89
1005.90 1005.74 1005.76 1005.94 1006.20 1006.50 1006.81 1007.09 1007.36 1007.62 1007.91 1008.25 1008.64 1009.09 1009.58 1010.09 1010.58 1011.02 1011.39 1011.69 1011.92 1012.08 1012.20 1012.30 1012.39 1012.47 1012.55 1012.62 1012.67 1012.70 1012.70 1012.67 1012.63 1012.58 1012.53 1012.48 1012.43 1012.38 1012.31 1012.22 1012.10 1011.94 1011.75
1006.18 1005.98 1005.98 1006.13 1006.38 1006.67 1006.97 1007.26 1007.54 1007.82 1008.14 1008.50 1008.94 1009.43 1009.97 1010.52 1011.05 1011.54 1011.95 1012.27 1012.50 1012.66 1012.76 1012.82 1012.86 1012.89 1012.92 1012.94 1012.95 1012.95 1012.92 1012.88 1012.83 1012.77 1012.71 1012.65 1012.58 1012.51 1012.41 1012.28 1012.11 1011.91 1011.67
1006.90 1006.66 1006.61 1006.71 1006.92 1007.17 1007.44 1007.71 1007.97 1008.26 1008.58 1008.95 1009.40 1009.91 1010.47 1011.05 1011.61 1012.11 1012.54 1012.87 1013.10 1013.25 1013.33 1013.36 1013.37 1013.36 1013.35 1013.34 1013.33 1013.31 1013.27 1013.22 1013.16 1013.10 1013.03 1012.94 1012.85 1012.74 1012.61 1012.43 1012.22 1011.97 1011.69
1008.00 1007.71 1007.60 1007.64 1007.78 1007.98 1008.20 1008.43 1008.67 1008.93 1009.24 1009.61 1010.05 1010.56 1011.11 1011.69 1012.24 1012.74 1013.16 1013.49 1013.72 1013.85 1013.92 1013.93 1013.91 1013.87 1013.84 1013.81 1013.77 1013.73 1013.69 1013.64 1013.58 1013.50 1013.42 1013.32 1013.21 1013.07 1012.89 1012.68 1012.42 1012.13 1011.80
1009.34 1009.00 1008.82 1008.79 1008.86 1009.00 1009.17 1009.36 1009.57 1009.81 1010.10 1010.45 1010.87 1011.35 1011.88 1012.42 1012.95 1013.43 1013.84 1014.15 1014.36 1014.49 1014.54 1014.53 1014.49 1014.43 1014.37 1014.32 1014.26 1014.21 1014.15 1014.09 1014.02 1013.95 1013.85 1013.74 1013.61 1013.44 1013.23 1012.99 1012.70 1012.37 1012.01
1010.72 1010.34 1010.11 1010.01 1010.02 1010.10 1010.24 1010.40 1010.59 1010.81 1011.08 1011.41 1011.80 1012.25 1012.74 1013.25 1013.74 1014.19 1014.57 1014.86 1015.07 1015.18 1015.22 1015.20 1015.14 1015.07 1014.98 1014.89 1014.80 1014.72 1014.64 1014.56 1014.48 1014.39 1014.29 1014.16 1014.02 1013.83 1013.60 1013.33 1013.01 1012.65 1012.27
1011.96 1011.55 1011.27 1011.13 1011.09 1011.14 1011.25 1011.40 1011.59 1011.82 1012.09 1012.40 1012.78 1013.20 1013.65 1014.12 1014.57 1014.99 1015.35 1015.63 1015.83 1015.94 1015.98 1015.96 1015.88 1015.78 1015.66 1015.53 1015.40 1015.28 1015.16 1015.05 1014.94 1014.83 1014.71 1014.57 1014.40 1014.20 1013.95 1013.66 1013.31 1012.93 1012.52
1012.93 1012.51 1012.21 1012.04 1011.98 1012.02 1012.13 1012.29 1012.50 1012.75 1013.03 1013.36 1013.72 1014.12 1014.55 1014.98 1015.41 1015.80 1016.15 1016.42 1016.63 1016.75 1016.80 1016.78 1016.70 1016.57 1016.41 1016.24 1016.05 1015.87 1015.69 1015.53 1015.38 1015.24 1015.10 1014.94 1014.75 1014.53 1014.26 1013.94 1013.57 1013.17 1012.73
1013.58 1013.17 1012.87 1012.70 1012.64 1012.68 1012.82 1013.01 1013.26 1013.55 1013.86 1014.20 1014.57 1014.96 1015.37 1015.78 1016.18 1016.56 1016.90 1017.19 1017.41 1017.55 1017.62 1017.61 1017.53 1017.38 1017.19 1016.96 1016.72 1016.47 1016.24 1016.02 1015.82 1015.63 1015.45 1015.26 1015.04 1014.79 1014.49 1014.14 1013.75 1013.32 1012.86
1013.94 1013.57 1013.30 1013.14 1013.09 1013.16 1013.33 1013.57 1013.86 1014.19 1014.55 1014.91 1015.29 1015.68 1016.07 1016.46 1016.84 1017.21 1017.55 1017.85 1018.09 1018.27 1018.36 1018.37 1018.29 1018.14 1017.92 1017.65 1017.36 1017.05 1016.75 1016.47 1016.21 1015.98 1015.75 1015.52 1015.27 1014.98 1014.65 1014.26 1013.83 1013.37 1012.89
1014.11 1013.80 1013.57 1013.43 1013.42 1013.52 1013.72 1014.00 1014.34 1014.71 1015.10 1015.49 1015.87 1016.25 1016.63 1016.99 1017.36 1017.71 1018.05 1018.35 1018.61 1018.81 1018.94 1018.97 1018.91 1018.76 1018.53 1018.24 1017.91 1017.55 1017.20 1016.87 1016.56 1016.27 1016.00 1015.73 1015.43 1015.11 1014.73 1014.30 1013.84 1013.34 1012.83
1014.20 1013.96 1013.78 1013.68 1013.70 1013.83 1014.06 1014.37 1014.74 1015.15 1015.56 1015.96 1016.34 1016.70 1017.05 1017.39 1017.72 1018.05 1018.36 1018.67 1018.93 1019.15 1019.30 1019.36 1019.33 1019.19 1018.97 1018.67 1018.32 1017.94 1017.56 1017.18 1016.83 1016.51 1016.19 1015.87 1015.54 1015.17 1014.75 1014.28 1013.77 1013.24 1012.71
1014.29 1014.13 1014.01 1013.96 1014.00 1014.15 1014.40 1014.73 1015.12 1015.54 1015.96 1016.36 1016.73 1017.07 1017.38 1017.67 1017.95 1018.24 1018.52 1018.80 1019.06 1019.29 1019.45 1019.54 1019.53 1019.42 1019.22 1018.94 1018.59 1018.21 1017.81 1017.42 1017.04 1016.68 1016.33 1015.97 1015.59 1015.18 1014.72 1014.22 1013.68 1013.13 1012.57
1014.43 1014.36 1014.29 1014.28 1014.35 1014.51 1014.77 1015.11 1015.51 1015.93 1016.34 1016.73 1017.08 1017.38 1017.65 1017.89 1018.12 1018.35 1018.58 1018.82 1019.06 1019.28 1019.45 1019.55 1019.57 1019.50 1019.33 1019.08 1018.76 1018.39 1017.99 1017.59 1017.20 1016.81 1016.42 1016.02 1015.61 1015.16 1014.67 1014.14 1013.59 1013.02 1012.46
1014.61 1014.62 1014.61 1014.64 1014.73 1014.90 1015.16 1015.50 1015.89 1016.31 1016.71 1017.09 1017.41 1017.69 1017.91 1018.10 1018.27 1018.44 1018.63 1018.82 1019.03 1019.22 1019.39 1019.51 1019.55 1019.51 1019.39 1019.17 1018.88 1018.53 1018.15 1017.74 1017.33 1016.91 1016.49 1016.05 1015.60 1015.12 1014.60 1014.06 1013.50 1012.93 1012.38
1014.77 1014.86 1014.91 1014.97 1015.08 1015.26 1015.53 1015.86 1016.25 1016.66 1017.06 1017.42 1017.73 1017.99 1018.18 1018.33 1018.46 1018.58 1018.72 1018.87 1019.04 1019.21 1019.38 1019.50 1019.57 1019.56 1019.47 1019.29 1019.03 1018.70 1018.32 1017.90 1017.46 1017.01 1016.54 1016.06 1015.57 1015.05 1014.52 1013.97 1013.41 1012.86 1012.33
1014.87 1015.02 1015.12 1015.22 1015.35 1015.54 1015.81 1016.14 1016.53 1016.93 1017.33 1017.70 1018.01 1018.26 1018.45 1018.58 1018.69 1018.78 1018.89 1019.01 1019.15 1019.31 1019.47 1019.60 1019.69 1019.71 1019.64 1019.49 1019.25 1018.93 1018.54 1018.09 1017.62 1017.11 1016.59 1016.06 1015.51 1014.96 1014.40 1013.85 1013.30 1012.78 1012.27
1014.85 1015.06 1015.20 1015.33 1015.49 1015.69 1015.96 1016.29 1016.68 1017.10 1017.51 1017.88 1018.21 1018.47 1018.67 1018.81 1018.92 1019.01 1019.11 1019.22 1019.36 1019.52 1019.68 1019.83 1019.93 1019.97 1019.93 1019.79 1019.55 1019.22 1018.81 1018.33 1017.79 1017.22 1016.63 1016.03 1015.43 1014.83 1014.25 1013.69 1013.16 1012.66 1012.19
1014.71 1014.96 1015.15 1015.31 1015.48 1015.69 1015.97 1016.30 1016.70 1017.11 1017.54 1017.93 1018.28 1018.57 1018.79 1018.96 1019.09 1019.21 1019.32 1019.45 1019.61 1019.78 1019.96 1020.12 1020.24 1020.30 1020.27 1020.14 1019.90 1019.56 1019.11 1018.57 1017.97 1017.33 1016.66 1015.99 1015.32 1014.68 1014.07 1013.50 1012.97 1012.49 1012.05
1014.47 1014.76 1014.97 1015.15 1015.34 1015.57 1015.84 1016.18 1016.56 1016.98 1017.41 1017.82 1018.18 1018.50 1018.76 1018.96 1019.14 1019.29 1019.44 1019.61 1019.79 1020.00 1020.20 1020.39 1020.54 1020.62 1020.60 1020.48 1020.23 1019.86 1019.37 1018.79 1018.13 1017.42 1016.68 1015.94 1015.21 1014.52 1013.88 1013.29 1012.77 1012.30 1011.88
1014.18 1014.49 1014.72 1014.92 1015.12 1015.35 1015.62 1015.94 1016.32 1016.72 1017.13 1017.54 1017.91 1018.24 1018.53 1018.77 1018.99 1019.18 1019.39 1019.60 1019.83 1020.07 1020.32 1020.54 1020.71 1020.81 1020.81 1020.69 1020.45 1020.06 1019.56 1018.94 1018.24 1017.48 1016.70 1015.91 1015.14 1014.41 1013.75 1013.14 1012.61 1012.14 1011.73
Thickness
5731 5730 5728 5728 5727 5725 5723 5722 5720 5718 5717 5715 5713 5711 5709 5708 5707 5706 5703 5701 5700 5698 5697 5697 5694 5694 5693 5691 5690 5688 5687 5687 5687 5686 5685 5687 5688 5687 5686 5685 5685 5685 5683
5725 5723 5723 5723 5722 5720 5719 5717 5715 5713 5711 5710 5708 5707 5705 5705 5703 5701 5697 5696 5695 5693 5693 5690 5690 5689 5687 5685 5684 5683 5682 5683 5682 5680 5678 5678 5680 5680 5683 5681 5679 5679 5678
5719 5718 5718 5717 5717 5716 5715 5714 5710 5708 5707 5706 5705 5703 5700 5699 5697 5695 5693 5692 5691 5689 5688 5686 5685 5684 5684 5682 5680 5679 5677 5677 5678 5676 5673 5671 5672 5673 5677 5675 5675 5672 5671
5717 5716 5714 5713 5713 5713 5712 5709 5706 5704 5703 5702 5701 5698 5696 5694 5693 5692 5690 5688 5686 5685 5683 5681 5680 5679 5679 5676 5676 5675 5674 5671 5672 5671 5669 5668 5667 5664 5666 5668 5668 5667 5664
5714 5713 5712 5711 5710 5710 5708 5706 5703 5701 5700 5698 5697 5695 5694 5692 5691 5689 5686 5684 5683 5681 5679 5677 5675 5673 5673 5671 5669 5668 5668 5668 5667 5666 5665 5663 5662 5660 5657 5657 5658 5659 5659
5710 5709 5710 5709 5707 5707 5705 5703 5700 5697 5696 5694 5693 5690 5688 5686 5685 5683 5681 5680 5679 5677 5674 5672 5670 5669 5668 5666 5665 5664 5663 5662 5660 5660 5660 5659 5656 5655 5653 5650 5651 5651 5652
5706 5705 5705 5705 5704 5703 5701 5700 5697 5694 5693 5691 5689 5687 5685 5683 5681 5679 5677 5675 5674 5672 5669 5668 5666 5665 5663 5662 5660 5659 5658 5657 5655 5654 5654 5654 5652 5651 5649 5646 5645 5644 5646
5704 5702 5701 5701 5701 5700 5698 5697 5694 5692 5690 5688 5685 5684 5682 5681 5680 5676 5674 5671 5670 5668 5665 5663 5662 5660 5658 5657 5655 5655 5654 5652 5649 5649 5648 5647 5647 5645 5643 5640 5637 5635 5637
5700 5699 5699 5698 5698 5697 5695 5694 5691 5688 5686 5684 5682 5679 5678 5676 5675 5672 5670 5668 5665 5665 5662 5660 5658 5656 5653 5652 5650 5649 5647 5646 5645 5644 5642 5641 5640 5638 5636 5633 5629 5625 5625
5697 5696 5695 5695 5694 5693 5691 5690 5687 5684 5682 5681 5679 5678 5674 5672 5671 5669 5667 5665 5662 5660 5658 5656 5654 5651 5649 5648 5646 5645 5643 5640 5638 5635 5633 5632 5633 5631 5629 5626 5624 5621 5617
5695 5694 5693 5692 5691 5690 5688 5686 5684 5682 5680 5678 5676 5674 5672 5670 5668 5666 5664 5662 5659 5656 5654 5652 5650 5647 5645 5643 5641 5640 5638 5635 5633 5630 5629 5626 5623 5623 5622 5620 5617 5614 5611
5695 5693 5691 5691 5689 5687 5686 5684 5682 5680 5678 5676 5674 5671 5669 5667 5665 5663 5661 5658 5655 5654 5651 5650 5647 5645 5643 5640 5637 5635 5635 5632 5629 5626 5623 5620 5619 5616 5615 5613 5611 5608 5605
5693 5690 5688 5687 5686 5685 5683 5682 5680 5678 5677 5675 5671 5668 5666 5664 5662 5660 5658 5656 5653 5651 5649 5647 5644 5642 5640 5637 5635 5632 5630 5627 5624 5620 5617 5615 5613 5610 5610 5606 5605 5603 5602
5689 5687 5685 5684 5683 5683 5682 5680 5678 5677 5675 5673 5670 5666 5664 5662 5660 5658 5656 5654 5652 5649 5647 5644 5642 5639 5637 5635 5632 5629 5626 5622 5619 5616 5613 5611 5609 5606 5603 5602 5599 5597 5594
5686 5684 5682 5681 5680 5680 5679 5678 5676 5675 5673 5671 5668 5666 5663 5661 5659 5656 5654 5652 5649 5647 5644 5642 5639 5637 5635 5632 5628 5625 5622 5618 5615 5612 5609 5607 5603 5598 5596 5595 5593 5591 5588
5685 5683 5681 5679 5677 5677 5676 5675 5674 5672 5670 5668 5666 5665 5663 5660 5657 5654 5651 5648 5646 5644 5641 5639 5637 5635 5632 5625 5620 5618 5617 5614 5611 5608 5606 5603 5600 5595 5590 5587 5583 5580 5579
5683 5681 5679 5678 5676 5676 5674 5672 5672 5670 5667 5665 5664 5663 5661 5658 5655 5653 5650 5646 5643 5641 5638 5635 5633 5631 5626 5620 5616 5613 5612 5611 5607 5604 5601 5599 5597 5591 5588 5584 5579 5576 5572
5681 5679 5678 5676 5675 5675 5673 5672 5671 5668 5665 5664 5662 5661 5659 5656 5654 5651 5647 5644 5641 5638 5636 5633 5630 5627 5622 5616 5612 5609 5609 5608 5604 5600 5596 5593 5589 5586 5580 5579 5577 5574 5571
5679 5678 5677 5676 5674 5673 5671 5669 5668 5666 5664 5662 5660 5659 5657 5654 5651 5649 5645 5642 5639 5636 5634 5631 5628 5625 5620 5613 5608 5604 5606 5605 5601 5597 5593 5588 5584 5576 5572 5572 5571 5569 5567
5677 5676 5675 5674 5672 5670 5669 5666 5664 5663 5661 5660 5658 5656 5654 5652 5649 5646 5643 5641 5637 5634 5632 5630 5627 5623 5619 5610 5605 5600 5604 5601 5598 5594 5590 5582 5577 5570 5566 5566 5566 5564 5562
5675 5674 5672 5670 5669 5668 5666 5663 5661 5659 5659 5658 5656 5653 5651 5649 5646 5643 5640 5638 5635 5633 5630 5628 5625 5621 5616 5609 5602 5598 5599 5597 5595 5592 5588 5582 5572 5566 5562 5559 5559 5557 5553
5672 5671 5668 5667 5667 5665 5662 5660 5658 5657 5656 5654 5652 5650 5648 5647 5645 5641 5638 5636 5634 5631 5629 5626 5623 5621 5615 5608 5602 5596 5592 5588 5588 5587 5584 5578 5568 5563 5559 5557 5554 5551 5549
5669 5668 5666 5664 5663 5662 5660 5657 5656 5655 5653 5650 5648 5647 5645 5643 5642 5639 5637 5635 5634 5633 5631 5628 5625 5622 5618 5610 5601 5596 5591 5586 5584 5583 5577 5571 5566 5562 5561 5557 5553 5550 5551
5665 5665 5663 5661 5660 5659 5658 5656 5654 5652 5649 5647 5646 5645 5643 5641 5639 5638 5638 5636 5634 5632 5630 5627 5623 5620 5617 5612 5607 5601 5595 5588 5585 5582 5577 5571 5567 5563 5561 5558 5556 5554 5551
5662 5662 5660 5659 5658 5657 5655 5654 5652 5649 5646 5645 5644 5643 5642 5640 5638 5636 5634 5634 5630 5628 5625 5625 5621 5618 5614 5607 5599 5596 5595 5591 5586 5580 5579 5578 5575 5571 5567 5563 5559 5554 5550
5658 5657 5656 5656 5655 5654 5652 5651 5650 5647 5644 5642 5641 5642 5641 5640 5639 5637 5633 5627 5625 5621 5618 5614 5612 5612 5606 5600 5595 5590 5586 5582 5577 5575 5579 5577 5574 5570 5567 5563 5558 5554 5550